[[{"header":{"parameterUnit":"m.s-1","parameterCategory":1,"la1":30.2992,"la2":30.254,"lo1":-89.0895,"lo2":-89.0443,"dy":0.0025,"dx":0.0025,"nx":19,"ny":19,"refTime":"2026-05-23T21:00:00:Z","depth":0,"parameterNumber":2,"parameterNumberName":"U-component_of_WINDS"},"data":[0,0,0,-0.1154,-0.1154,-0.115,-0.115,-0.1156,-0.1156,0,0,0,0,0,0,0,0,0,0,0,-0.116,-0.116,-0.1154,-0.1154,-0.115,-0.115,-0.1156,-0.1156,0,0,0,0,0,0,0,0,0,0,0,-0.116,-0.116,-0.116,-0.1154,-0.115,-0.115,-0.1156,-0.1156,0,0,0,0,0,0,0,0,0,0,-0.1158,-0.1166,-0.116,-0.116,-0.1154,-0.115,-0.115,-0.1155,-0.1156,-0.1162,0,-0.1166,0,-0.1161,-0.1157,-0.1157,0,0,0,-0.1152,-0.1166,-0.1161,-0.116,-0.1154,-0.115,-0.1151,-0.1155,-0.1156,-0.1162,-0.1166,-0.1166,-0.1161,-0.1157,-0.1157,-0.1197,-0.1198,0,0,-0.1152,-0.1162,-0.1161,-0.1161,-0.116,-0.1152,-0.1151,-0.1155,-0.1161,-0.1166,-0.1166,-0.1161,-0.1157,-0.1157,-0.1197,-0.1197,0,0,0,-0.1154,-0.1162,-0.1157,-0.1161,-0.116,-0.1151,-0.1151,-0.1161,-0.1158,-0.1166,-0.1161,-0.1157,-0.1157,-0.1196,-0.1197,-0.1223,0,0,0,-0.1154,-0.1163,-0.1157,-0.1163,-0.116,-0.116,-0.1157,-0.1158,-0.1158,-0.1161,-0.1157,-0.1157,-0.1196,-0.1197,-0.1221,-0.1234,0,0,0,-0.1159,-0.1164,-0.1164,-0.1163,-0.1162,-0.116,-0.1157,-0.1158,-0.1156,-0.1157,-0.1157,-0.1196,-0.1197,-0.122,-0.1231,-0.1249,0,0,0,-0.1166,-0.1186,-0.1165,-0.1186,-0.1162,-0.1174,-0.1157,-0.1166,-0.117,-0.1157,-0.1196,-0.1197,-0.1219,-0.123,-0.1247,-0.1266,-0.1274,0,0,-0.1197,-0.1191,-0.1202,-0.1183,-0.1202,-0.1174,-0.1198,-0.1193,-0.1184,-0.1194,-0.1195,-0.1222,-0.1231,-0.1248,-0.1313,-0.132,0,0,0,-0.1216,-0.1225,-0.1227,-0.1231,-0.1227,-0.1226,-0.1216,-0.1215,-0.1222,-0.1191,-0.1231,-0.1237,-0.1246,-0.1255,-0.1261,-0.1269,-0.1201,-0.1201,-0.1201,-0.1274,-0.1262,-0.1282,-0.127,-0.1274,-0.1265,-0.1268,-0.1265,-0.1251,-0.1261,-0.1265,-0.1305,-0.1315,-0.132,-0.1329,-0.1272,-0.1272,-0.1272,-0.1272,-0.132,-0.1332,-0.1314,-0.1327,-0.1316,-0.1327,-0.1319,-0.131,-0.1321,-0.1301,-0.1309,-0.1291,-0.1327,-0.1335,-0.1274,-0.1274,-0.1273,-0.1273,-0.1273,-0.1359,-0.1363,-0.136,-0.1366,-0.1372,-0.136,-0.1371,-0.136,-0.1349,-0.1357,-0.1361,-0.1361,-0.1361,-0.1359,-0.136,-0.136,-0.136,-0.136,-0.136,-0.1401,-0.1397,-0.1407,-0.1405,-0.1408,-0.1409,-0.1401,-0.1404,-0.1404,-0.1395,-0.1395,-0.1383,-0.1332,-0.132,-0.1362,-0.1362,-0.1362,-0.1361,-0.1361,-0.1455,-0.1441,-0.1456,-0.1459,-0.1458,-0.1467,-0.1452,-0.1459,-0.1459,-0.1466,-0.1452,-0.1415,-0.1408,-0.1403,-0.1394,-0.1452,-0.1452,-0.1452,-0.1452,-0.1489,-0.1484,-0.1498,-0.1503,-0.1506,-0.1495,-0.1517,-0.1512,-0.1505,-0.1505,-0.1495,-0.1481,-0.1476,-0.1472,-0.1466,-0.1457,-0.153,-0.1531,-0.1531,-0.1523,-0.1518,-0.1537,-0.1528,-0.1527,-0.1528,-0.1548,-0.1557,-0.1546,-0.1534,-0.1506,-0.1503,-0.148,-0.1472,-0.1461,-0.1452,-0.1435,0,0]},{"header":{"parameterUnit":"m.s-1","parameterCategory":1,"la1":30.2992,"la2":30.254,"lo1":-89.0895,"lo2":-89.0443,"dy":0.0025,"dx":0.0025,"nx":19,"ny":19,"refTime":"2026-05-23T21:00:00:Z","depth":0,"parameterNumber":3,"parameterNumberName":"V-component_of_WINDS"},"data":[0,0,0,2.1892,2.1893,2.1943,2.1943,2.201,2.2011,0,0,0,0,0,0,0,0,0,0,0,2.1878,2.1878,2.1892,2.1893,2.1943,2.1943,2.201,2.2011,0,0,0,0,0,0,0,0,0,0,0,2.1878,2.1878,2.1879,2.1893,2.1943,2.1943,2.201,2.1971,0,0,0,0,0,0,0,0,0,0,2.1923,2.1909,2.1878,2.1879,2.1894,2.1943,2.1943,2.1969,2.1974,2.1988,0,2.2,0,2.2006,2.2015,2.2015,0,0,0,2.1893,2.1906,2.1919,2.1879,2.1894,2.1943,2.1921,2.1972,2.1977,2.1994,2.2001,2.2003,2.2007,2.2015,2.2016,2.2097,2.2097,0,0,2.1891,2.1887,2.1915,2.1922,2.1913,2.1919,2.1922,2.1975,2.1983,2.2001,2.2005,2.2008,2.2016,2.2016,2.2096,2.2097,0,0,0,2.1883,2.1885,2.1897,2.1919,2.1928,2.192,2.1924,2.198,2.1984,2.2006,2.2009,2.2016,2.2017,2.2096,2.2096,2.2111,0,0,0,2.1881,2.1881,2.1896,2.1894,2.1927,2.1954,2.1928,2.1981,2.1987,2.2009,2.2016,2.2018,2.2095,2.2096,2.211,2.2118,0,0,0,2.1874,2.188,2.1887,2.1894,2.1915,2.1954,2.1961,2.1982,2.1989,2.2015,2.2018,2.2095,2.2096,2.2109,2.2117,2.2139,0,0,0,2.1867,2.19,2.1887,2.1926,2.1915,2.1962,2.196,2.1996,2.2021,2.2017,2.2095,2.2096,2.2108,2.2115,2.2137,2.2156,2.2164,0,0,2.1907,2.1904,2.1927,2.1918,2.1966,2.1955,2.2006,2.2032,2.2039,2.2077,2.2079,2.211,2.2116,2.2138,2.2208,2.2214,0,0,0,2.1939,2.1955,2.1969,2.1992,2.2012,2.203,2.2049,2.2059,2.2092,2.2057,2.2124,2.2128,2.2141,2.215,2.2155,2.2167,2.21,2.21,2.21,2.199,2.1996,2.2035,2.2046,2.2069,2.2088,2.2107,2.2124,2.2123,2.2139,2.215,2.2192,2.2202,2.2206,2.2218,2.2161,2.2161,2.2161,2.2162,2.2049,2.2073,2.2072,2.2109,2.2116,2.2147,2.2168,2.2167,2.2198,2.2184,2.2195,2.2178,2.2212,2.2223,2.2163,2.2162,2.2162,2.2162,2.2162,2.2083,2.2095,2.2106,2.214,2.2166,2.2178,2.2208,2.2213,2.2218,2.223,2.2243,2.2243,2.2243,2.2236,2.2236,2.2236,2.2236,2.2236,2.2237,2.2113,2.2125,2.2149,2.2174,2.2189,2.2211,2.2231,2.2247,2.2267,2.2268,2.2268,2.2267,2.2215,2.2201,2.2239,2.2238,2.2238,2.2238,2.2238,2.2169,2.2158,2.2194,2.221,2.224,2.2266,2.2273,2.2305,2.2319,2.2334,2.2331,2.2291,2.229,2.2286,2.2275,2.2329,2.2329,2.2329,2.2329,2.2197,2.2197,2.2236,2.2261,2.2286,2.2296,2.2339,2.2356,2.2372,2.2382,2.2375,2.2361,2.2357,2.2358,2.2352,2.2342,2.2412,2.2412,2.2413,2.2233,2.2235,2.227,2.2284,2.2308,2.233,2.2371,2.2401,2.2417,2.2416,2.239,2.2386,2.2363,2.2356,2.2354,2.2345,2.2326,0,0]}]]